Weather History for Winnsboro, SC

Change the Weather History Date:

Tuesday, April 15, 2014

  Actual Average Record
Temperature  
Mean Temperature 56 °F -  
Max Temperature 69 °F 73 °F 80 °F (2012)
Min Temperature 42 °F 50 °F 42 °F (2014)
Degree Days  
Heating Degree Days 10    
Growing Degree Days 6 (Base 50)    
Moisture  
Dew Point 59 °F    
Average Humidity 90    
Maximum Humidity 100    
Minimum Humidity 58    
Precipitation  
Precipitation 0.00 in - - ()
Sea Level Pressure  
Sea Level Pressure 29.76 in    
Wind  
Wind Speed 11 mph (SW)    
Max Wind Speed 17 mph    
Max Gust Speed 25 mph    
Visibility 9 miles    
Events Rain , Thunderstorm    
Averages and records for this station are not official NWS values.
T = Trace of Precipitation, MM = Missing Value Source: NWS Daily Summary

Daily Weather History Graph

Daily Weather History Graph

Search for Another Location

Airport:

Trip Planner

Search our weather history database for the weather conditions in past years. The results will help you decide how hot, cold, wet, or windy it might be!

Date:

Astronomy

Apr. 15, 2014 Rise Set
Actual Time 6:53 AM EDT 7:56 PM EDT
Civil Twilight 6:27 AM EDT 8:22 PM EDT
Nautical Twilight 5:56 AM EDT 8:52 PM EDT
Astronomical Twilight 5:25 AM EDT 9:24 PM EDT
Moon 8:33 PM EDT (4/15) 7:00 AM EDT (4/15)
Length of Visible Light 13h 54m
Length of Day
13h 02m
Full, 100% of the Moon is Illuminated
Apr 15
Full
Apr 22
Last Quarter
Apr 29
New
May 6
First Quarter
May 14
Full

Hourly Weather History & Observations

Time (EDT) Temp. Windchill Dew Point Humidity Pressure Visibility Wind Dir Wind Speed Gust Speed Precip Events Conditions
12:15 AM 69.8 °F - 64.4 °F 83% 29.83 in 10.0 mi South 10.4 mph - N/A   Mostly Cloudy
12:35 AM 68.0 °F - 66.2 °F 94% 29.82 in 10.0 mi South 12.7 mph 19.6 mph N/A   Overcast
12:55 AM 68.0 °F - 68.0 °F 100% 29.81 in 10.0 mi South 10.4 mph 16.1 mph N/A   Overcast
1:15 AM 68.0 °F - 68.0 °F 100% 29.81 in 10.0 mi South 12.7 mph - N/A Rain Rain
1:35 AM 68.0 °F - 68.0 °F 100% 29.81 in 7.0 mi South 10.4 mph - N/A Rain Rain
1:55 AM 68.0 °F - 68.0 °F 100% 29.80 in 3.0 mi SSE 8.1 mph - N/A Rain , Thunderstorm Heavy Thunderstorms and Rain
2:15 AM 68.0 °F - 68.0 °F 100% 29.78 in 2.0 mi SSW 12.7 mph 16.1 mph N/A Rain , Thunderstorm Thunderstorms and Rain
2:35 AM 68.0 °F - 68.0 °F 100% 29.77 in 10.0 mi South 12.7 mph 18.4 mph N/A Thunderstorm Unknown
2:55 AM 68.0 °F - 68.0 °F 100% 29.76 in 10.0 mi South 9.2 mph - N/A   Overcast
3:15 AM 68.0 °F - 68.0 °F 100% 29.76 in 2.5 mi SSW 6.9 mph 16.1 mph N/A Rain Heavy Rain
3:35 AM 68.0 °F - 68.0 °F 100% 29.76 in 10.0 mi SSW 13.8 mph 25.3 mph N/A   Overcast
3:55 AM 68.0 °F - 68.0 °F 100% 29.76 in 10.0 mi SSW 11.5 mph 20.7 mph N/A   Overcast
4:15 AM 68.0 °F - 68.0 °F 100% 29.76 in 10.0 mi SSW 12.7 mph 20.7 mph N/A   Overcast
4:35 AM 68.0 °F - 68.0 °F 100% 29.77 in 10.0 mi West 11.5 mph 17.3 mph N/A Rain Light Rain
4:55 AM 64.4 °F - 64.4 °F 100% 29.77 in 10.0 mi WSW 12.7 mph 24.2 mph N/A Rain Light Rain
5:15 AM 64.4 °F - 64.4 °F 100% 29.76 in 10.0 mi WSW 10.4 mph - N/A   Scattered Clouds
5:35 AM 64.4 °F - 64.4 °F 100% 29.76 in 10.0 mi WSW 8.1 mph - N/A   Scattered Clouds
5:55 AM 64.4 °F - 64.4 °F 100% 29.76 in 10.0 mi WSW 5.8 mph - N/A   Scattered Clouds
6:15 AM 64.4 °F - 64.4 °F 100% 29.74 in 10.0 mi West 4.6 mph - N/A   Scattered Clouds
6:35 AM 64.4 °F - 64.4 °F 100% 29.74 in 10.0 mi WSW 4.6 mph - N/A   Scattered Clouds
6:55 AM 62.6 °F - 62.6 °F 100% 29.76 in 10.0 mi SSW 8.1 mph - N/A   Clear
7:15 AM 62.6 °F - 62.6 °F 100% 29.75 in 10.0 mi South 5.8 mph - N/A   Clear
7:35 AM 62.6 °F - 62.6 °F 100% 29.75 in 7.0 mi South 6.9 mph - N/A   Mostly Cloudy
7:55 AM 62.6 °F - 62.6 °F 100% 29.74 in 7.0 mi South 6.9 mph - N/A Rain Light Rain
8:15 AM 62.6 °F - 62.6 °F 100% 29.73 in 7.0 mi South 8.1 mph - N/A Rain Light Rain
8:35 AM 62.6 °F - 62.6 °F 100% 29.72 in 10.0 mi SSE 9.2 mph - N/A   Drizzle
8:55 AM 62.6 °F - 62.6 °F 100% 29.72 in 10.0 mi South 8.1 mph - N/A   Light Drizzle
9:15 AM 64.4 °F - 64.4 °F 100% 29.73 in 10.0 mi SSW 5.8 mph - N/A   Clear
9:35 AM 64.4 °F - 64.4 °F 100% 29.71 in 10.0 mi South 6.9 mph - N/A   Scattered Clouds
9:55 AM 64.4 °F - 64.4 °F 100% 29.72 in 10.0 mi SSW 8.1 mph - N/A   Light Drizzle
10:15 AM 64.4 °F - 62.6 °F 94% 29.71 in 10.0 mi South 10.4 mph - N/A Rain Light Rain
10:35 AM 64.4 °F - 62.6 °F 94% 29.73 in 10.0 mi SSW 8.1 mph - N/A   Clear
10:55 AM 64.4 °F - 62.6 °F 94% 29.71 in 10.0 mi South 9.2 mph - N/A   Light Drizzle
11:15 AM 66.2 °F - 62.6 °F 88% 29.70 in 10.0 mi South 6.9 mph - N/A   Light Drizzle
11:35 AM 68.0 °F - 64.4 °F 88% 29.71 in 10.0 mi South 13.8 mph 17.3 mph N/A   Mostly Cloudy
11:55 AM 68.0 °F - 62.6 °F 83% 29.70 in 10.0 mi SSW 12.7 mph 21.9 mph N/A   Overcast
12:15 PM 68.0 °F - 64.4 °F 88% 29.70 in 10.0 mi SSW 13.8 mph 17.3 mph N/A   Overcast
12:35 PM 68.0 °F - 64.4 °F 88% 29.71 in 10.0 mi SSW 17.3 mph 25.3 mph N/A   Overcast
1:15 PM 68.0 °F - 64.4 °F 88% 29.70 in 10.0 mi SSW 17.3 mph 23.0 mph N/A   Overcast
1:55 PM 68.0 °F - 62.6 °F 83% 29.68 in 10.0 mi SSW 12.7 mph 20.7 mph N/A   Overcast
2:15 PM 68.0 °F - 64.4 °F 88% 29.67 in 10.0 mi SSW 12.7 mph 18.4 mph N/A   Overcast
2:35 PM 69.8 °F - 64.4 °F 83% 29.66 in 10.0 mi SSW 11.5 mph 21.9 mph N/A   Overcast
2:55 PM 69.8 °F - 64.4 °F 83% 29.65 in 10.0 mi SSW 12.7 mph 18.4 mph N/A   Overcast
3:15 PM 69.8 °F - 64.4 °F 83% 29.65 in 10.0 mi SSW 10.4 mph - N/A   Mostly Cloudy
3:35 PM 69.8 °F - 62.6 °F 78% 29.64 in 10.0 mi SSW 12.7 mph 18.4 mph N/A   Mostly Cloudy
3:55 PM 66.2 °F - 64.4 °F 94% 29.63 in 4.0 mi SW 12.7 mph 16.1 mph N/A Rain Rain
4:15 PM 64.4 °F - 64.4 °F 100% 29.64 in 2.5 mi West 9.2 mph - N/A Rain Heavy Rain
4:35 PM 64.4 °F - 64.4 °F 100% 29.64 in 7.0 mi WSW 11.5 mph 16.1 mph N/A Rain Light Rain
4:55 PM 60.8 °F - 59.0 °F 94% 29.66 in 10.0 mi NNW 17.3 mph 25.3 mph N/A   Mostly Cloudy
5:15 PM 60.8 °F - 59.0 °F 94% 29.66 in 10.0 mi NNW 9.2 mph - N/A   Scattered Clouds
5:35 PM 59.0 °F - 55.4 °F 88% 29.68 in 10.0 mi NNW 13.8 mph 21.9 mph N/A   Scattered Clouds
5:55 PM 59.0 °F - 55.4 °F 88% 29.69 in 10.0 mi NNW 13.8 mph 17.3 mph N/A   Mostly Cloudy
6:15 PM 59.0 °F - 55.4 °F 88% 29.71 in 10.0 mi NNW 10.4 mph 17.3 mph N/A   Overcast
6:35 PM 55.4 °F - 51.8 °F 88% 29.72 in 10.0 mi NNW 15.0 mph 23.0 mph N/A   Overcast
6:55 PM 55.4 °F - 51.8 °F 88% 29.75 in 10.0 mi NNW 13.8 mph 21.9 mph N/A   Overcast
7:15 PM 55.4 °F - 51.8 °F 88% 29.75 in 10.0 mi North 10.4 mph 20.7 mph N/A   Overcast
7:35 PM 55.4 °F - 50.0 °F 82% 29.77 in 10.0 mi NNW 6.9 mph - N/A   Overcast
7:55 PM 53.6 °F - 50.0 °F 88% 29.79 in 10.0 mi NW 5.8 mph - N/A   Overcast
8:15 PM 53.6 °F - 50.0 °F 88% 29.81 in 10.0 mi NNW 8.1 mph - N/A   Mostly Cloudy
8:35 PM 53.6 °F - 50.0 °F 88% 29.83 in 10.0 mi NNW 11.5 mph 16.1 mph N/A   Overcast
8:55 PM 53.6 °F - 46.4 °F 77% 29.87 in 10.0 mi NNW 10.4 mph 20.7 mph N/A   Overcast
9:15 PM 51.8 °F - 42.8 °F 71% 29.89 in 10.0 mi NNW 11.5 mph 20.7 mph N/A   Overcast
9:35 PM 51.8 °F - 41.0 °F 67% 29.91 in 10.0 mi NNW 13.8 mph 19.6 mph N/A   Overcast
9:55 PM 50.0 °F - 37.4 °F 62% 29.93 in 10.0 mi NNW 12.7 mph 19.6 mph N/A   Overcast
10:15 PM 48.2 °F - 33.8 °F 58% 29.95 in 10.0 mi NNW 16.1 mph 24.2 mph N/A   Mostly Cloudy
10:35 PM 46.4 °F 40.1 °F 33.8 °F 62% 29.96 in 10.0 mi NNW 15.0 mph 19.6 mph N/A   Scattered Clouds
10:55 PM 44.6 °F 39.7 °F 33.8 °F 66% 29.97 in 10.0 mi NNW 9.2 mph 17.3 mph N/A   Clear
11:15 PM 42.8 °F 37.0 °F 33.8 °F 70% 29.97 in 10.0 mi NNW 10.4 mph 16.1 mph N/A   Clear
11:35 PM 42.8 °F 37.5 °F 33.8 °F 70% 30.00 in 10.0 mi NNW 9.2 mph 16.1 mph N/A   Clear
11:55 PM 42.8 °F 38.6 °F 33.8 °F 70% 30.03 in 10.0 mi North 6.9 mph - N/A   Clear